sat.trackr.live / text

‹ back to catalog

STARLINK-34088

NORAD 64025 · 2025-102D

PAYLOAD ACTIVE UNKNOWN

§ Identity

Operator
Country
US
Launch date
2025-05-16
Launch site
AFWTR
Launch vehicle
Mass (kg)
RCS (m²)

Purposes: comms

External: N2YO · Heavens-Above · Gunter

§ Orbital elements

Epoch: 2026-09-20T13:44:10.161312Z

Period
94.14 min
Inclination
70.0026°
Eccentricity
0.0003543
Mean motion
15.29583469 rev/d
Perigee alt
474.6 km
Apogee alt
479.5 km
Semi-major
6,855.2 km
B*
2.6855e-4
RAAN
340.6945°
Arg perigee
244.8717°
Mean anomaly
115.2091°
Rev number
7,521

§ Raw data

STARLINK-340881 64025U 25102D   26263.57233983  .00007601  00000+0  26855-3 0  99982 64025  70.0026 340.6945 0003543 244.8717 115.2091 15.29583469 75219

JSON: /api/v1/satellites/64025 · /tle

For live sub-satellite position, see the globe view (requires WebGL).

§ Visibility from observer

Set your observer location to see the next 7 days of passes ≥ 10°. The values pass through the URL so the page stays shareable.

No JS? Fill the form by hand. The geolocation button needs JavaScript.